Regional Weather Roundup
Issued by NWS

Home | Current Version | Previous Version | Graphics & Text | Print | Product List | Glossary On
Versions: 1 2 3 4 5 6 7 8 9 10 11 12 13 14 15 16 17 18 19 20 21 22 23 24 25 26 27 28 29 30 31 32 33 34 35 36 37 38 39 40 41 42 43 44 45 46 47 48 49 50
000
ASUS45 KABQ 030001
RWRNM
NEW MEXICO REGIONAL WEATHER ROUNDUP
NATIONAL WEATHER SERVICE ALBUQUERQUE NM
600 PM MDT SUN AUG 02 2015

NOTE: "FAIR" MEANS FEW OR NO CLOUDS BELOW 12,000 FEET AGL WITH NO
       SIGNIFICANT WEATHER OR OBSTRUCTIONS TO VISION.

      THIS PRODUCT IS RELEASED AS TWO VERSIONS.  ONE VERSION NEAR
      THE TOP OF THE HOUR CONTAINING PRELIMINARY DATA FROM ALBUQUERQUE
      AND OTHER STATIONS.  A FINAL VERSION WITH ADDITIONAL DATA IS
      ISSUED ABOUT 10 MINUTES AFTER THE HOUR.

NMZ501-503-504-510>518-030100-
NORTHWEST PLATEAU/NORTHCENTRAL MOUNTAINS

CITY           SKY/WX    TMP DP  RH WIND       PRES   REMARKS
FARMINGTON     PTSUNNY   76  53  44 W10       30.09S
6HR MIN TEMP:  75; 6HR MAX TEMP:  84;

SANTA FE       PTSUNNY   77  54  44 NE3       30.15S
6HR MIN TEMP:  74; 6HR MAX TEMP:  83;

TAOS           CLOUDY    61  48  63 N9        30.25R
ANGEL FIRE     CLOUDY    58  53  83 N9        30.37R

$$
NMZ402-403-502-505>509-030100-
WESTCENTRAL MOUNTAINS/SOUTHWEST MOUNTAINS

CITY           SKY/WX    TMP DP  RH WIND       PRES   REMARKS
GALLUP         PTSUNNY   79  49  34 W7        30.13F THUNDER
6HR MIN TEMP:  73; 6HR MAX TEMP:  82;

GRANTS         CLOUDY    69  56  65 SE18G28   30.20S
SILVER CITY      N/A     86  48  26 W9        30.09F

$$
NMZ407-409-411-412-030100-
SOUTHERN DESERTS

CITY           SKY/WX    TMP DP  RH WIND       PRES   REMARKS
DEMING         MOSUNNY   93  51  23 W12       29.98F
6HR MIN TEMP:  86; 6HR MAX TEMP:  94;

HOLLOMAN AFB   MOSUNNY   92  55  28 NW22G32   29.95R
ALAMOGORDO     MOSUNNY   93  50  22 W14G21    29.97S
T OR C         MOSUNNY   84  54  35 NW9       30.05F
6HR MIN TEMP:  76; 6HR MAX TEMP:  89; 6HR PCP: TRACE;


$$
NMZ519>523-030100-
CENTRAL VALLEYS/CENTRAL HIGHLANDS

CITY           SKY/WX    TMP DP  RH WIND       PRES   REMARKS
ALBUQUERQUE    CLOUDY    78  55  44 SW17G24   30.12R
6HR MIN TEMP:  78; 6HR MAX TEMP:  83;

DOUBLE EAGLE   PTSUNNY   75  57  53 SW12      30.15R
MORIARTY ARPT    N/A     78  51  38 W12       30.16S
6HR MIN TEMP:  77; 6HR MAX TEMP:  83;

CLINES CORNERS PTSUNNY   67  57  70 N13G23    30.21F
6HR MIN TEMP:  63; 6HR MAX TEMP:  80; 6HR PCP:  0.25;

BELEN          CLOUDY    71  58  63 W10       30.12R
6HR MIN TEMP:  68; 6HR MAX TEMP:  85;

SOCORRO        NOT AVBL

$$
NMZ524>526-539-540-030100-
SOUTHCENTRAL MOUNTAINS

CITY           SKY/WX    TMP DP  RH WIND       PRES   REMARKS
RUIDOSO          N/A    N/A N/A N/A MISG        N/A

$$
NMZ527>531-030100-
NORTHEAST HIGHLANDS/NORTHEAST PLAINS

CITY           SKY/WX    TMP DP  RH WIND       PRES   REMARKS
RATON          NOT AVBL
CLAYTON        CLOUDY    77  60  55 E10       30.08R
6HR MIN TEMP:  77; 6HR MAX TEMP:  89;


$$
NMZ532>537-030100-
EASTCENTRAL PLAINS

CITY           SKY/WX    TMP DP  RH WIND       PRES   REMARKS
TUCUMCARI      MOSUNNY   88  66  48 CALM      29.94F
6HR MIN TEMP:  85; 6HR MAX TEMP:  92;

CANNON AFB     TSTM      78  65  64 E13G38    29.98F
6HR MIN TEMP:  78; 6HR MAX TEMP:  92; 6HR PCP:  0.04;

CLOVIS AIRPORT MOSUNNY   82  63  51 SE9       29.99F

$$
NMZ028-029-538-030100-
SOUTHEAST PLAINS

CITY           SKY/WX    TMP DP  RH WIND       PRES   REMARKS
ROSWELL        PTSUNNY   93  53  25 S6        29.92F
6HR MIN TEMP:  83; 6HR MAX TEMP:  98;

ARTESIA        MOSUNNY   97  55  24 E10       29.92F HX  95
CARLSBAD       PTSUNNY   96  56  26 S17       29.90S
6HR MIN TEMP:  89; 6HR MAX TEMP: 101;

HOBBS          LGT RAIN N/A N/A N/A NE8       29.97R


$$



USA.gov is the U.S. government's official web portal to all federal, state and local government web resources and services.